This is the latest recevied weather packets stored in our database for station/object W8AN. If no packets are shown the sender has not sent any weather packets the latest 10 day(s).
| Time | Temp. | Humidity | Pressure | Rain* | Wind** | Luminosity | Snow |
|---|---|---|---|---|---|---|---|
| 1778045928 | 7.22° C | 83% | 4264.1 hPa | 0 mm | - | 0 W/m² | - |
| 1778045627 | 7.22° C | 84% | 4264.1 hPa | 1.78 mm | - | 0 W/m² | - |
| 1778045325 | 7.22° C | 84% | 4264.2 hPa | 1.78 mm | - | 0 W/m² | - |
| 1778045023 | 7.78° C | 84% | 4264.2 hPa | 1.78 mm | - | 0 W/m² | - |
| 1778044720 | 7.22° C | 84% | 4264.4 hPa | 1.78 mm | - | 0 W/m² | - |
| 1778044417 | 7.22° C | 84% | 4264.1 hPa | 1.78 mm | - | 0 W/m² | - |
| 1778044114 | 7.78° C | 85% | 4264.4 hPa | 0 mm | - | 0 W/m² | - |
| 1778043811 | 7.78° C | 85% | 4264.3 hPa | 1.27 mm | - | 0 W/m² | - |
| 1778043508 | 7.78° C | 85% | 4264.2 hPa | 1.27 mm | - | 0 W/m² | - |
| 1778043205 | 7.78° C | 85% | 4264.3 hPa | 0 mm | - | 0 W/m² | - |
| 1778042902 | 7.78° C | 85% | 4264.1 hPa | 0 mm | - | 0 W/m² | - |
| 1778042600 | 7.78° C | 85% | 4264 hPa | 1.78 mm | - | 0 W/m² | - |
| 1778042296 | 7.78° C | 85% | 4264 hPa | 1.78 mm | - | 0 W/m² | - |
| 1778041994 | 8.89° C | 85% | 4264.1 hPa | 1.78 mm | - | 0 W/m² | - |
| 1778041692 | 8.89° C | 85% | 4263.7 hPa | 1.27 mm | - | 0 W/m² | - |
| 1778041391 | 8.89° C | 85% | 4264.1 hPa | 1.27 mm | - | 0 W/m² | - |
| 1778041089 | 8.89° C | 85% | 4263.7 hPa | 0 mm | - | 0 W/m² | - |
| 1778040785 | 8.89° C | 85% | 4264.1 hPa | 0 mm | - | 0 W/m² | - |
| 1778040483 | 8.89° C | 85% | 4263.6 hPa | 0 mm | - | 0 W/m² | - |
| 1778040180 | 8.89° C | 86% | 4263.7 hPa | 1.78 mm | - | 0 W/m² | - |
| 1778039876 | 8.89° C | 86% | 4264 hPa | 1.78 mm | - | 0 W/m² | - |
| 1778039573 | 8.89° C | 86% | 4264 hPa | 0 mm | - | 0 W/m² | - |
| 1778039271 | 8.89° C | 86% | 4264.2 hPa | 0 mm | - | 0 W/m² | - |
| 1778038968 | 8.89° C | 86% | 4264.1 hPa | 0 mm | - | 0 W/m² | - |
| 1778038664 | 8.89° C | 86% | 4263.9 hPa | 0 mm | - | 0 W/m² | - |
* Rain latest hour (hover to see other rain measurements)
** Current wind speed in m/s (hover to see current wind gust speed)